Wind_Speed
5 5 7 6 7 7 6 6 7 4 6 8 9 10 8 1 2 3 5 7 10 11 12 14 15 15 14 9 12 12 20 22 20 24 28 27 28 24 20 18 18 17 17 18
6 8 4 3 5 5 4 5 7 3 2 8 11 11 11 9 3 4 6 8 10 12 13 15 16 17 16 15 9 14 13 19 23 27 23 31 26 15 23 23 17 19 23 21
11 10 2 5 4 6 1 8 6 10 10 15 14 16 14 12 5 4 6 9 11 14 15 16 17 18 17 17 16 12 14 15 18 23 22 31 26 27 25 28 23 24 27 25
7 4 3 2 4 10 8 4 7 10 10 10 5 12 12 19 12 6 6 10 13 15 16 16 18 18 19 18 16 18 14 14 16 22 27 22 29 32 33 35 30 30 32 27
7 6 6 4 6 8 7 9 11 13 13 13 19 11 14 16 13 7 8 11 13 15 17 18 18 18 18 18 19 17 19 15 15 19 23 20 38 31 33 33 34 33 35 29
8 5 8 8 6 5 9 12 14 14 12 13 20 17 15 3 7 6 9 12 14 16 17 18 18 18 18 18 19 19 19 18 16 17 23 31 29 40 31 35 34 30 31 30
7 8 5 15 13 5 10 9 7 8 9 12 4 6 12 8 7 7 10 13 15 17 19 21 21 21 21 20 19 20 20 19 19 20 20 28 29 28 28 26 33 31 34 35
4 6 10 10 8 8 9 8 6 7 8 9 8 7 8 7 6 8 11 14 16 17 19 21 22 23 22 22 19 20 21 21 20 19 21 21 31 27 32 30 34 34 33 33
6 4 4 6 4 8 5 3 8 8 16 10 11 5 9 6 7 9 12 15 17 19 22 23 23 24 24 23 22 20 20 21 20 22 20 19 21 28 28 32 25 34 37 31
4 2 1 2 3 0 5 6 4 5 6 14 12 11 6 6 7 9 13 17 17 21 24 23 23 25 25 23 22 20 19 19 20 22 20 21 19 28 29 29 31 31 35 33
4 4 5 4 1 2 3 2 4 6 9 10 13 4 3 3 9 12 16 19 20 21 21 21 23 24 24 23 21 20 20 18 20 21 22 21 18 18 26 26 26 27 25 22
5 5 4 4 2 4 5 6 6 4 5 7 8 12 3 7 13 16 19 18 18 19 20 18 22 22 22 22 21 20 20 18 18 21 21 19 18 20 18 21 20 22 24 17
5 3 5 6 7 7 6 6 6 8 10 12 9 4 4 8 12 16 18 18 18 19 18 20 21 19 19 21 22 20 18 18 18 20 20 18 17 14 16 21 27 26 21 23
4 7 5 8 4 3 4 8 7 9 7 9 9 14 15 13 12 16 18 16 15 18 17 18 19 18 19 21 21 21 21 19 17 16 16 16 14 12 13 15 18 24 25 24
3 5 6 7 8 12 12 10 12 12 9 8 12 14 13 11 12 16 16 18 17 18 18 19 21 22 22 24 24 21 17 14 13 14 13 14 12 10 9 10 14 18 17 18
2 4 2 6 12 13 15 16 16 17 13 11 10 15 14 16 17 17 17 17 18 19 19 20 21 22 26 27 22 16 12 11 8 9 10 12 11 11 8 7 10 12 12 11
5 2 4 5 5 10 14 13 15 14 6 5 10 5 14 15 17 17 16 16 19 19 19 20 20 20 26 24 18 16 12 5 4 6 7 8 6 9 9 6 6 7 9 12
6 7 7 8 5 6 1 2 4 9 8 7 11 11 13 16 18 17 8 13 18 17 17 18 19 20 23 23 15 13 9 3 5 7 9 8 9 7 7 6 8 10 10 7
9 9 5 4 9 13 10 4 2 3 9 10 14 11 11 15 19 5 5 17 17 15 15 16 15 16 19 20 13 10 8 8 7 6 4 5 10 10 12 10 10 10 8 14
8 7 7 6 9 6 2 3 7 6 7 12 8 8 8 10 6 3 18 17 17 17 18 18 17 17 15 16 13 12 13 13 13 9 6 6 7 6 7 9 9 10 12 10
5 6 10 10 9 8 5 8 6 5 4 4 5 7 8 5 8 17 17 15 14 14 14 13 15 15 15 13 14 13 15 17 16 13 11 11 12 10 8 8 7 7 6 5
3 3 4 5 4 5 11 8 6 1 3 5 5 5 5 10 12 13 12 13 12 14 13 13 14 14 13 12 10 13 16 14 15 18 20 18 15 15 13 10 10 9 8 7
5 5 4 4 3 1 17 9 14 7 7 6 6 5 5 6 7 7 10 12 11 10 9 9 14 13 13 12 11 14 14 14 14 16 17 18 18 18 17 17 15 14 12 10
8 14 5 6 4 18 15 19 12 14 11 8 7 6 5 6 6 7 7 8 9 9 9 8 13 12 14 14 14 10 8 8 11 14 14 14 15 15 16 17 17 18 17 15
11 7 9 11 16 9 16 21 20 17 14 12 9 8 7 6 5 6 6 7 7 7 8 8 11 12 10 9 8 7 7 7 8 8 8 9 11 12 17 17 17 16 16 13
15 11 9 6 9 13 5 22 21 19 18 14 11 9 7 6 5 4 4 5 6 7 7 8 8 8 9 10 10 9 9 9 9 9 10 12 11 11 10 12 16 15 15 14
Wind_Direction
339 243 40 32 351 342 339 295 281 78 45 304 240 270 149 177 217 90 46 33 31 25 14 12 14 9 339 311 259 230 229 228 218 215 220 214 211 215 206 225 226 218 221 220
189 76 48 17 349 341 319 291 241 324 252 289 264 242 189 180 124 68 35 28 16 11 7 3 4 6 7 336 300 259 244 230 228 223 212 223 225 223 235 232 228 234 224 224
21 75 15 321 30 314 102 329 4 303 324 268 259 257 239 152 174 143 54 24 13 5 1 358 355 356 359 358 334 303 274 249 232 221 203 220 244 236 224 222 230 248 232 219
55 54 335 277 90 336 295 52 296 282 284 282 158 280 283 155 185 164 52 15 3 357 354 351 351 349 349 349 347 331 300 290 247 231 225 227 234 232 236 225 234 226 237 228
88 56 355 33 4 327 16 321 292 285 276 278 264 242 260 158 185 121 28 1 351 346 347 346 344 342 342 341 340 335 326 293 281 248 229 220 223 240 236 242 227 225 229 228
82 85 39 358 303 312 301 283 262 248 257 257 253 250 245 136 41 27 2 349 346 341 338 337 336 335 332 332 335 333 324 315 281 272 237 222 232 237 229 223 234 234 226 227
132 61 96 4 314 184 320 295 275 220 215 247 85 284 71 89 52 13 344 333 333 332 332 331 332 331 329 328 328 327 324 311 291 265 258 234 233 225 240 239 234 237 235 232
303 170 8 13 22 327 302 321 308 298 301 324 132 248 142 106 50 0 337 328 325 328 326 325 325 323 322 321 321 319 319 310 298 281 262 244 228 216 230 247 244 250 247 253
338 94 124 35 353 340 14 282 5 294 264 259 257 113 141 116 9 345 338 331 327 327 325 319 319 319 317 315 314 313 311 309 296 279 268 258 221 218 223 234 243 241 254 253
355 268 80 65 276 76 306 341 266 216 273 268 271 297 80 1 330 332 329 329 328 323 320 316 315 315 314 309 308 307 302 304 296 281 265 252 238 222 224 228 242 252 231 254
306 253 138 211 88 331 256 294 295 300 294 290 291 295 172 316 332 328 329 323 318 319 319 316 314 312 311 308 307 302 301 299 297 280 266 254 226 216 225 228 242 241 229 242
31 317 285 357 121 231 284 308 290 286 299 297 294 290 315 322 349 327 316 321 317 318 318 316 315 314 313 312 309 304 299 295 291 276 264 245 231 206 200 204 209 214 220 220
355 241 282 178 208 209 258 272 276 260 255 266 278 282 223 348 325 338 318 315 316 319 317 315 317 317 315 314 308 305 299 291 287 271 258 244 227 198 197 203 211 210 207 224
290 279 277 290 316 301 236 245 260 265 274 307 292 323 331 341 337 315 313 312 315 318 319 313 319 319 319 318 312 302 298 286 276 259 245 234 212 200 197 199 202 212 221 228
277 267 271 268 256 259 269 263 263 264 273 282 319 308 313 340 316 322 326 318 320 325 322 325 326 323 326 324 319 310 301 286 262 245 228 213 193 185 193 201 211 215 215 220
208 279 328 278 243 257 262 258 254 253 265 269 285 288 13 326 327 322 323 327 330 327 326 327 327 327 325 324 321 317 315 294 251 221 224 203 185 182 173 208 210 212 213 219
249 266 271 288 332 298 267 250 238 252 238 251 258 310 314 319 316 316 324 325 327 323 325 327 327 325 323 325 326 328 321 309 239 196 176 185 187 147 189 176 190 205 212 208
268 252 269 291 286 247 82 214 309 237 250 230 248 269 282 298 306 310 300 326 324 324 325 325 325 325 327 327 333 344 348 45 119 109 144 154 159 174 181 183 195 201 203 179
237 278 290 277 296 291 214 141 213 198 275 227 237 254 281 302 302 255 323 329 324 318 323 323 323 326 327 328 350 360 32 56 76 86 111 175 179 160 167 166 170 184 174 197
246 245 266 290 302 289 92 156 186 184 274 131 188 233 276 310 301 21 327 330 335 339 340 339 342 341 341 347 16 14 33 49 54 71 109 134 139 156 176 186 183 174 186 188
239 248 256 257 256 266 135 172 181 245 50 149 206 245 259 269 274 299 317 327 333 338 341 346 344 350 355 1 20 31 43 50 49 57 79 98 106 111 116 124 142 156 175 193
262 260 246 257 267 266 156 166 224 247 262 255 266 268 274 272 302 312 323 332 347 354 360 349 352 358 7 15 26 29 36 44 61 61 73 79 91 97 99 111 121 132 145 153
240 224 306 259 271 198 192 199 218 237 255 260 272 289 287 301 314 322 323 341 347 349 353 351 354 8 21 25 47 46 33 41 52 72 74 77 80 85 96 100 100 105 107 113
219 225 239 269 273 245 229 229 235 229 239 246 250 270 279 299 318 326 334 340 347 351 353 353 357 18 13 6 32 27 38 38 40 58 70 86 88 93 99 94 95 101 98 98
258 175 227 250 252 243 231 226 225 225 226 231 238 251 258 286 306 325 336 344 350 354 354 357 352 13 13 14 23 29 44 51 53 59 62 54 64 74 76 84 96 93 93 96
218 217 211 224 223 199 240 210 209 213 217 221 226 235 244 260 281 303 321 333 349 351 358 4 3 8 11 13 16 25 38 41 47 52 57 69 62 69 72 70 79 86 89 85
Height
1515 1505 1511 1523 1520 1515 1509 1506 1502 1502 1518 1522 1510 1508 1518 1530 1529 1528 1530 1532 1534 1535 1535 1534 1533 1531 1526 1526 1525 1525 1527 1528 1530 1535 1539 1539 1545 1552 1556 1558 1562 1567 1569 1569
1514 1523 1530 1530 1526 1520 1517 1513 1508 1512 1522 1525 1508 1511 1510 1526 1530 1532 1533 1534 1535 1535 1535 1534 1533 1531 1530 1526 1524 1524 1525 1526 1530 1532 1533 1538 1541 1545 1551 1555 1559 1562 1566 1567
1523 1531 1535 1531 1527 1524 1523 1522 1519 1525 1519 1518 1514 1510 1505 1520 1531 1534 1534 1535 1536 1536 1536 1535 1533 1532 1530 1529 1523 1523 1523 1524 1527 1529 1531 1533 1538 1542 1544 1549 1553 1558 1563 1564
1534 1538 1535 1531 1531 1535 1525 1533 1533 1528 1523 1512 1508 1510 1488 1505 1523 1530 1534 1536 1537 1537 1536 1536 1534 1532 1530 1528 1526 1521 1521 1522 1522 1524 1528 1530 1532 1536 1538 1544 1549 1547 1557 1560
1537 1539 1537 1534 1543 1542 1531 1537 1533 1527 1522 1517 1506 1508 1497 1492 1512 1522 1533 1538 1539 1539 1537 1536 1534 1532 1530 1527 1524 1522 1518 1518 1518 1519 1522 1526 1526 1530 1533 1539 1542 1546 1549 1552
1542 1546 1549 1548 1545 1544 1541 1532 1524 1520 1519 1518 1502 1498 1489 1500 1527 1532 1538 1540 1540 1539 1538 1536 1534 1532 1529 1527 1523 1519 1516 1514 1514 1515 1517 1518 1520 1522 1524 1532 1537 1541 1544 1547
1539 1546 1550 1551 1539 1538 1537 1527 1519 1514 1510 1506 1498 1504 1516 1532 1536 1539 1540 1541 1540 1539 1537 1535 1533 1530 1527 1524 1522 1519 1514 1511 1509 1511 1511 1511 1513 1518 1520 1523 1532 1538 1538 1540
1530 1545 1551 1557 1555 1553 1543 1539 1526 1523 1502 1492 1501 1507 1506 1534 1538 1541 1542 1540 1538 1537 1536 1533 1531 1528 1525 1522 1519 1516 1513 1508 1506 1505 1506 1506 1508 1514 1514 1520 1527 1531 1532 1535
1540 1548 1558 1561 1559 1557 1546 1537 1542 1541 1524 1520 1502 1512 1528 1533 1540 1540 1541 1539 1537 1536 1534 1531 1528 1526 1523 1519 1516 1513 1510 1506 1502 1500 1501 1503 1501 1506 1509 1518 1520 1525 1526 1528
1552 1552 1556 1560 1561 1557 1554 1552 1543 1540 1533 1512 1492 1493 1530 1543 1542 1538 1536 1536 1535 1535 1532 1529 1526 1523 1519 1516 1512 1509 1506 1503 1498 1497 1497 1498 1500 1502 1507 1511 1515 1518 1519 1523
1556 1551 1556 1559 1560 1563 1549 1544 1547 1543 1538 1527 1517 1510 1539 1537 1534 1534 1534 1533 1532 1531 1530 1528 1525 1520 1516 1512 1508 1504 1501 1498 1495 1492 1493 1494 1495 1498 1502 1507 1510 1512 1515 1516
1560 1553 1546 1552 1559 1561 1559 1555 1552 1552 1542 1540 1541 1524 1533 1533 1533 1534 1532 1530 1530 1529 1528 1526 1523 1518 1513 1508 1504 1500 1496 1493 1491 1488 1489 1490 1490 1493 1495 1500 1504 1506 1509 1511
1560 1548 1541 1552 1558 1558 1556 1554 1554 1550 1547 1543 1538 1526 1531 1532 1532 1534 1532 1530 1528 1526 1525 1524 1520 1515 1511 1505 1500 1496 1491 1488 1486 1484 1485 1486 1487 1488 1490 1494 1497 1501 1504 1506
1567 1552 1555 1546 1557 1557 1559 1550 1550 1546 1538 1530 1526 1528 1527 1531 1535 1534 1530 1528 1527 1525 1523 1520 1516 1512 1507 1502 1496 1491 1485 1483 1481 1480 1481 1481 1482 1483 1486 1489 1493 1497 1501 1504
1564 1560 1557 1561 1563 1552 1546 1547 1547 1541 1540 1541 1539 1536 1531 1534 1534 1531 1528 1526 1524 1523 1520 1515 1511 1507 1502 1497 1490 1485 1481 1479 1477 1476 1477 1478 1479 1481 1485 1486 1491 1494 1498 1501
1562 1561 1567 1558 1552 1548 1544 1540 1537 1536 1535 1536 1538 1534 1535 1534 1533 1529 1527 1525 1523 1520 1517 1512 1507 1502 1498 1493 1488 1483 1479 1476 1473 1474 1475 1475 1476 1479 1481 1486 1489 1492 1496 1499
1558 1560 1560 1546 1548 1542 1533 1531 1534 1536 1541 1545 1544 1539 1539 1536 1533 1530 1527 1525 1523 1519 1515 1510 1505 1501 1496 1491 1485 1481 1475 1472 1470 1470 1471 1471 1474 1475 1479 1485 1487 1489 1492 1496
1555 1559 1552 1548 1553 1535 1538 1540 1539 1536 1537 1540 1540 1539 1539 1536 1531 1529 1527 1525 1521 1518 1514 1509 1505 1500 1493 1489 1484 1477 1474 1471 1469 1468 1467 1470 1472 1475 1480 1481 1482 1486 1489 1494
1555 1552 1548 1551 1535 1523 1522 1538 1540 1541 1534 1532 1534 1535 1535 1533 1528 1523 1525 1523 1519 1515 1511 1507 1504 1501 1495 1486 1483 1477 1472 1468 1467 1464 1465 1465 1469 1473 1476 1477 1481 1483 1487 1488
1552 1553 1551 1543 1544 1529 1533 1538 1537 1539 1522 1527 1531 1533 1533 1533 1525 1523 1524 1520 1517 1513 1509 1505 1500 1497 1494 1486 1482 1478 1473 1470 1468 1466 1469 1471 1469 1469 1473 1478 1479 1481 1483 1485
1547 1546 1546 1537 1534 1518 1532 1532 1535 1531 1525 1529 1529 1531 1531 1531 1530 1525 1522 1520 1517 1513 1510 1506 1501 1497 1493 1488 1483 1480 1477 1473 1470 1470 1469 1467 1469 1471 1474 1475 1478 1480 1482 1485
1549 1544 1536 1533 1528 1524 1530 1531 1532 1528 1527 1527 1526 1525 1526 1526 1525 1523 1521 1519 1516 1514 1510 1507 1503 1499 1495 1491 1487 1483 1480 1479 1477 1473 1471 1472 1473 1473 1475 1477 1479 1481 1483 1484
1545 1542 1535 1533 1523 1528 1526 1525 1527 1527 1526 1525 1525 1524 1524 1524 1523 1523 1521 1519 1517 1516 1514 1511 1505 1501 1497 1495 1492 1489 1486 1483 1481 1479 1479 1479 1479 1479 1480 1481 1482 1483 1484 1485
1530 1534 1533 1531 1519 1518 1522 1523 1523 1524 1525 1524 1524 1524 1524 1523 1522 1522 1521 1520 1518 1516 1514 1512 1508 1504 1501 1498 1495 1495 1494 1493 1489 1487 1485 1484 1484 1484 1485 1485 1485 1485 1486 1487
1524 1526 1524 1517 1512 1514 1513 1515 1518 1520 1521 1522 1523 1523 1523 1523 1522 1521 1520 1520 1518 1517 1514 1512 1510 1507 1506 1503 1501 1499 1497 1496 1495 1494 1494 1493 1491 1490 1488 1487 1486 1488 1489 1490
1508 1507 1513 1503 1500 1502 1502 1507 1512 1515 1517 1519 1521 1521 1522 1522 1522 1521 1520 1519 1518 1516 1514 1513 1511 1510 1508 1505 1502 1500 1498 1497 1497 1496 1495 1493 1494 1494 1495 1494 1493 1493 1492 1492